World > North America > United States > New York

North Hudson, New York Regional Weather

Lat: 43.95N, Lon: 73.73W
Wx Zone: NYZ034
Warning NWS WEATHER ALERT - FLOOD WATCH (More Info. Click Here) Warning
Feedback

North Hudson, NY Regional Weather

Expires:201910171600;;848123
ASUS41 KALY 171510
RWRALY

NEW YORK STATE HOURLY WEATHER ROUNDUP
NATIONAL WEATHER SERVICE ALBANY NY
1100 AM EDT THU OCT 17 2019

NOTE: "FAIR" INDICATES FEW OR NO CLOUDS BELOW 12,000 FEET WITH NO
SIGNIFICANT WEATHER AND/OR NO OBSTRUCTIONS TO VISIBILITY.


NYZ026>034-041>043-087-171600-
NORTH

  
CITY           SKY/WX    TMP DP  RH WIND       PRES   REMARKS
WATERTOWN      LGT RAIN  48  46  93 N16G23    29.32R FOG              
FORT DRUM      NOT AVBL                                               
OGDENSBURG     LGT RAIN  48  46  93 N15       29.25F                  
MASSENA        RAIN      47  44  90 N10G20    29.26R FOG              
SARANAC LAKE   LGT RAIN  40  38  93 N10G16    29.11S WCI  33          
PLATTSBURGH    RAIN      45  42  89 N26G39    29.07S FOG              
$$


SKY/WX - Weather  TMP - Temperature  DP - Dew Point  RH - Relative Humidity
WIND - Wind Direction/Speed PRES - Barometric Pressure VSB - Visibility
WCI - Wind Chill Index E13G22 Wind - East Wind 13 mph/Gusts of 22 mph